Main page
METAR-TAF:

METAR-TAF

Airports :

Litchfield Municipal Airport

Litchfield, Minnesota, United States

latitude: 45-05-50N, longitude: 094-30-26W, elevation: 1141 ft

Current weather observation

The report was made 23 minutes ago, at 01:55 UTC
Wind 6 mph from the North
Temperature 73°F
Humidity 73%
Pressure 29.86 in. Hg
Visibility: 10 miles
Scattered clouds at a height of 5000 ft
Scattered clouds at a height of 5500 ft

METAR: KLJF 260155Z AUTO 35005KT 10SM SCT050 SCT055 23/18 A2986 RMK AO2

Time: 21:18 (02:18 UTC)


TAF: missing

Weather observations and forecasts of more than 4000 airports (METAR and TAF reports).

The available stations are represented by yellow and red dots on the map.

Hover mouse over dot to see the name of the station.

Then click to see weather observations and forecasts.

To change the map : click on the green buttons with a black cross to zoom in, on the green button with a dash to zoom out, or on the green arrows for adjacent maps.


METAR-TAF: